Terminal Aerodrome Forecast
Issued by NWS

Home | Current Version | Previous Version | Text Only | Print | Product List | Glossary On
Versions: 1 2 3 4 5 6 7 8 9 10 11 12 13 14 15 16 17 18 19
000
FTUS41 KPBZ 292100 AAA
TAFFKL
TAF AMD
KFKL 292105Z 2921/3018 21010G18KT 3SM -SHRASN OVC008
     FM292300 26012G22KT 2SM -SHSN OVC008
     FM300400 29013G23KT 2SM -SHSN OVC004
      AMD LTD TO CLD VIS AND WIND=

USA.gov is the U.S. government's official web portal to all federal, state and local government web resources and services.